| time (UTC) | temp C | wind direction | speed KPH | gust KPH | rain 1hr cm | rain 24hr cm | rain mn cm | humidity % | barometer mb |
| 20260504081502 | 12 | 5 | 0.0 | 4.8 | 0.00 | 0.00 | 0.00 | 61 | 1090.0 |
| 20260504070103 | 12 | 197 | 0.0 | 0.0 | 0.00 | 0.00 | 0.00 | 65 | 1090.0 |
| 20260504044546 | 11 | 101 | 0.0 | 0.0 | 0.00 | 0.00 | 0.00 | 66 | 1090.0 |
| 20260504043047 | 11 | 102 | 0.0 | 0.0 | 0.00 | 0.00 | 0.00 | 65 | 1090.0 |
| 20260504041548 | 11 | 107 | 0.0 | 0.0 | 0.00 | 0.00 | 0.00 | 66 | 1090.0 |
| 20260504040045 | 11 | 107 | 0.0 | 0.0 | 0.00 | 0.00 | 0.00 | 65 | 1090.0 |
| 20260504034600 | 11 | 243 | 0.0 | 0.0 | 0.00 | 0.00 | 0.00 | 65 | 1090.0 |
| 20260504033044 | 11 | 240 | 0.0 | 0.0 | 0.00 | 0.00 | 0.00 | 63 | 1090.0 |
| 20260504031544 | 11 | 242 | 0.0 | 0.0 | 0.00 | 0.00 | 0.00 | 63 | 1090.0 |
| 20260504030044 | 11 | 246 | 0.0 | 0.0 | 0.00 | 0.00 | 0.00 | 65 | 1090.0 |
| 20260504024543 | 11 | 251 | 0.0 | 0.0 | 0.00 | 0.00 | 0.00 | 65 | 1090.0 |
| 20260504023042 | 11 | 251 | 0.0 | 0.0 | 0.00 | 0.00 | 0.00 | 63 | 1090.0 |
| 20260504021542 | 11 | 251 | 0.0 | 0.0 | 0.00 | 0.00 | 0.00 | 65 | 1090.0 |
| 20260504020041 | 11 | 252 | 0.0 | 0.0 | 0.00 | 0.00 | 0.00 | 64 | 1090.0 |
| 20260504014553 | 11 | 252 | 0.0 | 0.0 | 0.00 | 0.00 | 0.00 | 64 | 1090.0 |
| 20260504013042 | 11 | 253 | 0.0 | 0.0 | 0.00 | 0.00 | 0.00 | 64 | 1090.0 |
| 20260504011543 | 12 | 253 | 0.0 | 0.0 | 0.00 | 0.00 | 0.00 | 64 | 1090.0 |
| 20260504010039 | 12 | 253 | 0.0 | 0.0 | 0.00 | 0.00 | 0.00 | 64 | 1090.0 |
| 20260504004542 | 12 | 253 | 0.0 | 0.0 | 0.00 | 0.00 | 0.00 | 66 | 1090.0 |
| 20260504003048 | 13 | 253 | 0.0 | 0.0 | 0.00 | 0.00 | 0.00 | 65 | 1090.0 |
| 20260504001542 | 14 | 252 | 0.0 | 0.0 | 0.00 | 0.00 | 0.00 | 63 | 1090.0 |
| 20260504000038 | 15 | 252 | 0.0 | 0.0 | 0.00 | 0.00 | 0.00 | 61 | 1090.0 |
| 20260503234546 | 15 | 252 | 0.0 | 0.0 | 0.00 | 0.00 | 0.00 | 63 | 1090.0 |
| 20260503233036 | 16 | 252 | 0.0 | 0.0 | 0.00 | 0.00 | 0.00 | 59 | 1090.0 |
| 20260503231537 | 16 | 252 | 0.0 | 0.0 | 0.00 | 0.00 | 0.00 | 56 | 1090.0 |
| 20260503230041 | 16 | 252 | 0.0 | 0.0 | 0.00 | 0.00 | 0.00 | 59 | 1090.0 |
| 20260503224536 | 16 | 252 | 0.0 | 0.0 | 0.00 | 0.00 | 0.00 | 54 | 1090.0 |
| 20260503223035 | 17 | 248 | 0.0 | 0.0 | 0.00 | 0.00 | 0.00 | 53 | 1090.0 |
| 20260503221534 | 17 | 246 | 0.0 | 4.8 | 0.00 | 0.00 | 0.00 | 54 | 1090.0 |
| 20260503220045 | 18 | 252 | 0.0 | 1.6 | 0.00 | 0.00 | 0.00 | 50 | 1090.0 |
| 20260503214533 | 18 | 253 | 0.0 | 1.6 | 0.00 | 0.00 | 0.00 | 48 | 1090.0 |
| 20260503213033 | 18 | 262 | 0.0 | 6.4 | 0.00 | 0.00 | 0.00 | 48 | 1090.0 |
| 20260503211532 | 18 | 282 | 0.0 | 0.0 | 0.00 | 0.00 | 0.00 | 47 | 1090.0 |
| 20260503210032 | 18 | 267 | 0.0 | 1.6 | 0.00 | 0.00 | 0.00 | 45 | 1090.0 |
| 20260503204532 | 18 | 248 | 0.0 | 6.4 | 0.00 | 0.00 | 0.00 | 47 | 1090.0 |
| 20260503203032 | 18 | 251 | 0.0 | 1.6 | 0.00 | 0.00 | 0.00 | 48 | 1090.0 |
| 20260503201532 | 18 | 244 | 0.0 | 3.2 | 0.00 | 0.00 | 0.00 | 49 | 1090.0 |
| 20260503200030 | 18 | 255 | 0.0 | 4.8 | 0.00 | 0.00 | 0.00 | 52 | 1090.0 |
| 20260503194529 | 18 | 259 | 0.0 | 1.6 | 0.00 | 0.00 | 0.00 | 50 | 1090.0 |
| 20260503193032 | 18 | 314 | 0.0 | 4.8 | 0.00 | 0.00 | 0.00 | 51 | 1090.0 |
| 20260503191524 | 18 | 262 | 0.0 | 3.2 | 0.00 | 0.00 | 0.00 | 49 | 1090.0 |
| 20260503190031 | 18 | 236 | 0.0 | 1.6 | 0.00 | 0.00 | 0.00 | 48 | 1090.0 |
| 20260503184520 | 17 | 241 | 0.0 | 4.8 | 0.00 | 0.00 | 0.00 | 50 | 1090.0 |
| 20260503183026 | 17 | 221 | 0.0 | 6.4 | 0.00 | 0.00 | 0.00 | 48 | 1090.0 |
| 20260503181516 | 16 | 313 | 1.6 | 6.4 | 0.00 | 0.00 | 0.00 | 53 | 1090.0 |
| 20260503180019 | 16 | 266 | 0.0 | 8.0 | 0.00 | 0.00 | 0.00 | 50 | 1090.0 |
| 20260503174515 | 16 | 288 | 0.0 | 0.0 | 0.00 | 0.00 | 0.00 | 52 | 1090.0 |
| 20260503173014 | 16 | 278 | 0.0 | 4.8 | 0.00 | 0.00 | 0.00 | 54 | 1090.0 |
| 20260503171512 | 15 | 355 | 0.0 | 0.0 | 0.00 | 0.00 | 0.00 | 58 | 1090.0 |